Temperature
30 32 32 32 32 32 32 31 31 31 30 30 29 29 29 27 27 26 26 25 24 23 23 22 21 21 20 20 19 19 19 19 19 18 18 18 18 18 18 18 18 18 17 17
31 31 32 32 31 31 31 31 31 30 30 30 30 29 29 28 27 27 26 25 25 24 23 22 21 21 20 20 20 20 19 19 19 19 19 18 18 18 18 18 18 18 18 18
31 32 31 31 31 30 31 31 31 30 30 30 30 29 29 29 28 27 26 26 25 25 24 23 22 21 21 20 20 20 19 19 19 19 19 18 18 18 18 18 18 18 18 18
31 31 30 31 31 31 30 31 31 30 30 30 30 30 30 29 28 28 27 26 26 25 24 23 22 21 21 21 20 20 20 20 19 19 19 18 18 18 18 18 18 18 18 18
31 31 30 30 31 31 31 31 31 30 30 31 31 30 30 30 29 29 28 27 26 25 25 24 23 22 21 21 20 20 20 20 20 20 19 19 18 18 18 18 18 18 18 18
31 31 31 31 31 31 30 30 30 30 31 30 30 30 30 31 30 30 29 27 26 26 25 24 23 22 22 21 21 20 20 20 20 20 19 19 19 19 18 18 18 18 18 18
30 30 31 30 30 30 30 30 29 29 30 30 30 30 30 31 31 30 29 28 27 26 25 24 23 22 22 21 21 21 20 20 20 20 20 19 19 19 19 18 18 18 18 18
29 30 30 30 31 30 30 31 30 29 30 30 30 30 31 31 30 29 29 28 27 26 25 24 23 23 22 21 21 21 20 20 20 20 20 20 19 19 19 19 18 18 18 18
30 30 30 30 30 31 30 31 31 30 30 30 31 30 30 30 30 29 29 28 27 26 25 25 24 23 22 22 21 21 21 20 20 20 20 20 20 19 19 19 19 18 18 18
30 29 30 29 30 30 31 31 30 30 28 29 30 30 30 30 30 30 30 29 27 26 26 25 24 23 23 22 21 21 21 21 21 20 20 20 20 20 20 19 19 19 18 18
30 29 29 29 29 30 29 30 30 30 30 30 29 30 31 30 30 30 30 28 27 26 26 25 24 23 22 22 21 21 21 20 20 20 20 20 20 20 20 19 19 19 19 18
28 29 29 29 29 29 30 30 30 29 29 29 30 30 31 30 30 30 29 28 27 26 26 25 24 23 22 22 21 21 21 20 20 20 20 20 20 20 20 19 19 19 19 18
27 28 27 28 28 28 29 29 29 30 29 29 29 30 30 30 29 29 28 27 26 25 25 24 23 23 22 22 21 21 21 20 20 20 20 20 20 20 20 19 19 19 19 18
26 27 28 28 29 29 28 28 29 29 29 29 30 30 30 29 29 28 27 26 26 25 24 24 23 22 22 21 21 21 21 21 20 20 20 20 20 20 19 19 19 19 19 18
27 27 27 28 28 28 29 28 29 29 29 29 30 30 30 29 28 27 26 26 25 25 24 23 23 22 22 21 21 21 21 21 20 20 20 20 20 19 19 19 19 19 19 18
25 26 27 27 28 28 28 28 28 28 29 29 29 29 29 28 27 26 26 25 25 24 23 23 22 22 22 21 21 21 21 21 20 20 20 20 20 19 19 19 19 18 18 18
25 25 26 27 27 27 27 28 28 28 28 28 28 28 27 27 26 25 24 24 23 23 23 22 22 22 21 21 21 21 21 20 20 20 20 20 19 19 19 19 18 18 18 18
23 24 25 26 25 25 27 28 28 27 27 27 27 27 26 26 25 24 23 22 22 22 22 22 21 21 21 21 21 20 20 20 20 20 20 20 19 19 19 18 18 18 17 17
22 23 25 25 25 26 26 26 26 26 26 26 25 25 25 24 24 24 22 21 21 21 21 21 21 21 21 21 20 20 20 20 20 20 19 19 19 19 18 18 18 17 17 17
21 22 24 24 24 25 25 25 25 26 25 24 24 24 23 24 26 25 21 20 20 20 20 20 20 20 20 20 20 20 19 19 19 19 19 19 19 18 18 18 18 17 17 17
22 22 23 24 24 25 24 24 24 24 24 22 22 22 22 23 23 21 20 20 19 19 19 20 20 20 20 20 20 19 19 19 19 19 19 19 19 18 18 18 17 17 16 16
23 23 23 23 23 24 23 23 23 22 21 21 21 21 21 21 20 19 19 19 19 19 19 19 19 20 20 20 19 19 19 19 19 19 19 19 18 18 18 17 17 16 16 16
22 22 23 23 23 21 21 21 20 19 20 20 20 20 20 20 19 19 18 18 18 18 19 19 19 19 19 19 19 19 19 19 19 19 18 18 18 18 17 17 17 16 16 16
21 20 21 21 21 20 20 19 19 19 19 19 19 19 19 19 19 18 18 18 18 18 18 18 18 19 19 19 19 19 19 19 18 18 18 18 18 18 17 17 16 16 16 15
20 20 21 20 20 20 19 18 18 18 18 18 18 18 18 18 18 18 17 17 17 17 17 18 18 18 18 18 18 18 18 18 18 18 18 18 18 18 17 17 16 16 15 15
20 20 20 20 19 20 19 18 18 18 18 17 17 17 17 17 17 17 17 17 17 17 17 17 17 17 18 18 18 18 18 18 18 18 18 18 18 17 17 17 16 16 16 15
Wind_Speed
8 9 8 6 6 3 2 3 3 3 4 4 3 3 5 8 9 9 9 9 10 9 9 9 9 8 8 8 7 7 6 6 5 4 3 3 3 2 2 1 2 1 1 1
9 9 6 4 5 6 6 5 4 4 4 3 2 2 3 7 9 9 9 10 10 10 10 10 10 9 9 8 8 8 7 7 6 4 3 2 1 2 2 1 1 2 2 2
11 5 5 7 8 8 7 6 5 4 5 6 4 4 4 6 7 8 9 9 10 11 11 11 11 11 10 10 9 8 8 7 7 6 4 3 3 3 2 2 2 2 2 2
8 5 6 9 9 9 7 5 5 5 6 4 5 3 4 6 7 9 10 10 10 10 11 12 12 12 11 10 9 8 8 7 7 7 6 5 4 3 2 2 1 2 2 2
8 7 8 9 7 8 5 4 6 7 7 6 5 5 3 6 5 7 9 10 10 11 11 12 13 12 11 11 10 9 9 8 8 7 7 6 5 4 3 2 2 2 2 2
7 6 6 6 5 6 6 6 6 8 8 8 6 6 3 4 5 5 7 9 10 10 11 11 12 11 11 10 10 10 9 9 8 8 7 7 6 5 4 3 2 3 2 2
10 9 6 6 8 9 10 8 7 8 7 7 5 6 3 1 3 4 5 8 10 10 11 11 11 12 11 12 11 10 10 9 9 9 8 8 7 7 5 5 4 3 3 2
12 11 10 9 10 9 12 12 8 7 7 6 7 5 3 2 3 4 5 6 8 10 11 11 12 12 12 12 11 11 11 10 10 9 8 8 7 6 5 5 4 4 3 2
9 8 6 6 7 8 10 11 9 10 9 8 6 5 5 4 5 6 6 7 8 9 10 11 12 12 12 12 12 11 11 10 10 9 9 8 8 7 6 5 6 5 3 3
5 7 7 7 7 6 8 8 8 9 9 10 8 8 5 7 7 7 7 7 7 8 9 10 10 11 11 11 11 11 10 10 10 9 8 7 8 7 7 6 5 4 4 3
8 8 8 9 9 9 9 10 9 9 10 11 9 5 3 6 6 6 7 6 6 7 8 8 9 10 10 10 10 10 10 9 9 8 8 7 7 7 7 6 6 5 5 4
7 8 9 9 5 4 8 9 10 10 9 10 10 5 3 4 4 5 5 5 5 6 7 8 8 9 9 10 10 10 9 9 8 7 7 7 6 6 6 6 6 6 5 5
5 7 9 9 9 8 8 8 9 10 9 10 11 6 4 4 4 4 4 4 5 5 6 7 7 8 8 9 9 9 8 8 7 7 7 7 7 6 6 6 6 6 6 5
5 8 11 11 5 7 9 9 9 11 10 11 11 8 5 4 4 3 3 4 5 5 6 7 7 7 8 8 8 8 8 8 7 7 7 7 6 6 6 6 6 6 5 5
4 8 9 8 5 6 9 9 10 12 12 12 10 8 5 4 3 2 3 4 4 5 5 6 7 7 7 8 8 8 8 7 7 7 7 7 6 6 5 5 5 5 5 5
3 6 8 9 8 8 10 10 11 11 11 12 10 8 2 2 2 1 2 3 4 4 5 5 6 6 7 7 7 7 7 7 8 8 7 6 6 6 6 5 5 5 5 5
5 6 8 10 8 9 12 10 10 9 8 9 10 5 1 2 2 1 1 1 2 2 3 4 5 6 6 7 7 7 7 7 7 7 7 6 6 6 6 6 6 5 5 4
5 7 7 8 8 12 5 2 5 6 5 4 3 2 2 3 1 1 2 1 1 1 2 3 3 4 5 5 6 6 6 6 6 6 6 6 6 6 6 6 6 5 5 4
6 7 7 9 11 10 5 2 3 6 5 2 3 2 1 1 3 3 3 3 3 2 1 2 2 3 4 5 6 6 6 6 6 6 6 6 6 6 6 6 6 5 5 4
7 8 9 9 10 11 4 1 2 5 6 1 2 2 2 2 5 1 4 4 3 3 2 0 1 2 3 4 6 6 6 6 5 5 5 5 6 6 6 6 6 5 4 4
9 8 11 11 11 7 0 1 3 7 2 1 2 2 2 2 3 3 3 3 2 2 2 1 1 2 2 4 5 6 5 5 5 5 5 5 5 6 5 5 5 5 5 4
9 9 9 9 10 7 2 1 2 2 3 2 2 2 2 2 1 2 3 4 3 3 3 1 1 1 2 4 5 5 5 5 5 5 5 5 5 5 4 5 5 5 5 5
6 5 5 5 3 2 2 2 2 2 1 2 2 2 2 1 1 2 3 4 4 3 3 2 1 1 1 3 5 5 5 4 5 5 5 5 5 5 5 5 5 5 5 5
5 3 4 4 3 2 1 1 1 2 2 2 2 2 2 2 2 3 3 4 4 4 3 3 1 0 0 2 4 4 4 5 5 5 5 5 6 5 5 4 5 5 5 5
4 4 6 7 5 4 3 2 2 2 2 2 2 2 2 2 3 3 3 4 4 4 5 4 2 2 2 2 3 4 4 4 5 5 5 5 5 5 5 5 4 6 5 5
7 7 8 7 5 5 4 3 4 4 4 3 3 3 3 3 3 3 4 4 4 4 5 4 4 4 3 3 3 3 4 5 5 5 5 4 4 4 4 4 3 1 2 3
Wind_Direction
199 218 220 214 232 265 244 222 179 140 152 192 200 203 170 174 185 184 181 181 182 187 183 181 183 182 180 180 181 186 188 181 187 189 192 183 179 179 171 171 147 182 223 217
208 220 225 222 219 229 229 229 201 163 166 214 207 207 181 187 196 196 192 190 187 184 181 180 184 186 188 188 190 192 194 192 196 192 199 197 187 189 183 174 156 215 230 245
220 210 191 207 209 218 227 235 225 191 179 202 228 201 184 185 198 199 200 199 196 189 186 185 188 192 192 193 195 198 198 195 200 195 199 192 187 206 187 192 193 213 236 247
222 203 199 216 218 223 226 226 225 204 220 217 240 247 172 179 190 200 201 200 199 193 193 189 189 192 195 195 193 196 196 199 200 199 207 209 208 208 205 220 209 224 241 256
207 203 210 220 222 222 228 201 210 219 241 249 232 261 190 173 198 200 199 199 198 195 194 191 191 192 195 195 193 192 193 196 197 201 202 211 218 213 208 216 208 241 237 238
217 204 223 224 210 202 172 175 202 229 245 246 245 257 235 193 214 204 192 195 196 193 192 192 191 190 195 194 194 193 189 193 195 200 205 213 220 224 225 229 229 233 225 222
205 202 196 197 190 189 205 216 223 227 229 240 226 245 252 216 205 210 195 189 191 192 191 191 191 190 193 194 194 194 190 194 197 200 205 211 216 220 223 232 226 241 240 227
208 204 198 206 221 215 217 234 249 259 257 242 209 233 226 203 199 201 194 186 185 190 193 193 193 192 193 193 192 193 192 196 199 202 206 211 215 220 224 223 241 237 253 254
216 206 180 200 224 230 220 233 253 260 266 264 235 223 213 207 202 198 190 182 184 188 191 193 193 192 193 192 191 193 192 196 199 202 205 209 213 221 228 224 229 239 242 243
229 214 192 187 198 221 247 236 233 245 256 254 242 235 225 206 208 195 192 186 179 185 189 191 191 192 193 192 191 193 192 194 199 202 206 208 211 215 222 227 225 232 234 240
227 222 200 199 216 215 208 219 237 246 255 260 255 241 211 199 199 197 189 183 179 185 188 188 189 189 189 190 190 190 194 194 197 204 206 212 209 211 214 218 220 218 221 222
223 231 223 215 209 255 231 232 228 237 241 254 265 255 136 163 182 191 186 181 182 189 188 186 185 183 186 189 191 191 194 194 197 199 202 205 207 208 210 212 216 216 216 215
206 223 219 210 202 202 219 223 232 241 246 252 254 239 153 152 180 187 190 189 185 190 189 182 179 180 184 186 188 189 191 194 195 194 197 200 204 205 210 212 209 209 210 212
233 228 240 243 228 200 211 217 224 233 241 247 250 249 203 200 204 202 208 207 192 184 185 181 177 178 181 184 186 188 191 194 193 193 196 197 200 202 207 208 204 203 205 206
233 227 234 252 257 240 230 228 225 233 247 258 255 248 232 213 221 219 215 210 198 186 184 181 181 182 183 185 186 190 191 189 190 191 196 197 198 197 199 201 201 199 205 206
240 234 231 234 232 234 239 235 233 237 245 251 255 253 272 223 222 230 219 207 202 197 194 188 185 185 186 187 187 187 188 188 188 192 195 193 195 195 196 198 195 195 199 205
219 226 231 231 221 237 236 229 228 231 239 249 249 257 283 226 238 251 223 198 208 209 203 200 202 197 192 191 189 187 184 184 188 192 193 192 195 198 200 199 192 193 196 199
229 233 234 237 228 236 235 225 228 223 227 260 284 308 275 245 214 118 84 36 296 256 228 218 215 203 196 188 185 185 178 178 185 191 193 193 193 196 195 195 193 195 198 200
220 226 232 232 231 232 217 205 230 233 222 283 281 302 311 248 189 144 57 10 353 330 273 246 225 201 189 181 175 172 175 177 182 191 198 198 198 196 195 196 196 196 197 202
196 222 232 226 236 238 206 168 278 244 220 25 331 330 327 255 228 161 15 358 358 358 347 287 178 161 169 174 171 173 177 177 185 191 196 197 199 202 203 197 195 194 197 206
196 209 225 231 236 235 245 324 234 231 223 48 352 344 316 314 329 4 349 355 4 3 8 23 108 139 159 164 166 174 178 188 194 191 191 194 198 203 200 193 193 195 200 205
214 213 217 227 234 227 69 184 232 360 32 28 11 351 343 9 37 18 11 7 7 5 7 14 82 118 158 168 172 181 190 195 194 189 189 192 195 203 194 188 194 201 203 205
229 249 237 232 238 57 64 44 30 356 345 354 356 352 360 10 11 3 358 356 357 356 357 353 45 101 155 180 188 194 200 194 188 188 188 189 191 198 200 195 196 203 208 218
214 249 242 235 219 217 245 308 318 307 299 317 326 331 339 343 345 342 340 345 349 349 346 344 345 341 210 212 215 215 207 192 189 192 193 192 194 199 201 204 205 212 221 225
242 229 236 241 242 242 239 258 291 299 295 311 334 338 331 327 325 330 332 338 337 338 338 334 321 309 300 268 238 230 218 199 200 202 205 206 203 199 204 212 218 219 222 228
237 240 245 250 244 251 248 263 277 277 277 288 306 315 315 310 311 318 322 327 331 330 329 322 313 306 305 295 260 240 219 207 210 212 213 217 216 208 215 216 224 204 214 172
Height
1499 1497 1496 1494 1494 1495 1496 1499 1503 1504 1504 1507 1508 1509 1510 1516 1519 1521 1524 1527 1529 1532 1535 1537 1539 1541 1542 1543 1545 1546 1547 1548 1549 1550 1552 1552 1553 1553 1554 1554 1553 1553 1553 1553
1496 1496 1493 1494 1496 1497 1498 1502 1503 1504 1504 1506 1507 1508 1508 1512 1516 1518 1521 1524 1526 1530 1533 1535 1538 1539 1541 1542 1543 1545 1546 1547 1548 1549 1551 1551 1552 1553 1553 1553 1553 1552 1553 1552
1493 1492 1493 1496 1497 1500 1499 1501 1501 1504 1505 1505 1506 1508 1507 1509 1513 1516 1519 1521 1524 1527 1529 1532 1535 1537 1539 1541 1542 1544 1545 1546 1547 1548 1549 1550 1551 1552 1552 1552 1552 1552 1552 1552
1491 1491 1495 1495 1496 1497 1501 1497 1499 1503 1506 1505 1505 1512 1505 1505 1509 1512 1515 1518 1520 1524 1527 1529 1532 1534 1536 1539 1541 1542 1543 1544 1545 1546 1548 1549 1550 1551 1551 1551 1552 1551 1551 1551
1491 1491 1494 1495 1494 1495 1497 1496 1499 1501 1502 1503 1502 1506 1504 1501 1506 1506 1510 1513 1517 1520 1523 1526 1529 1531 1534 1537 1539 1540 1541 1542 1543 1545 1546 1547 1548 1549 1550 1550 1550 1550 1550 1550
1488 1491 1491 1492 1493 1495 1496 1500 1501 1499 1498 1511 1504 1506 1507 1497 1500 1500 1505 1509 1513 1517 1520 1523 1527 1529 1532 1534 1536 1538 1539 1540 1541 1543 1544 1545 1546 1547 1548 1548 1549 1549 1549 1549
1492 1490 1491 1492 1495 1497 1496 1501 1511 1514 1512 1510 1498 1503 1503 1493 1495 1498 1502 1506 1510 1514 1517 1520 1523 1526 1529 1531 1533 1535 1536 1537 1539 1540 1542 1543 1544 1545 1546 1547 1547 1548 1548 1548
1494 1495 1489 1490 1490 1493 1493 1494 1509 1518 1513 1503 1500 1502 1496 1492 1495 1498 1501 1504 1507 1511 1514 1517 1520 1523 1526 1528 1530 1532 1533 1535 1537 1538 1539 1541 1542 1543 1545 1545 1546 1546 1547 1546
1487 1491 1487 1489 1489 1489 1493 1492 1488 1498 1500 1505 1498 1495 1492 1492 1494 1497 1499 1502 1505 1508 1511 1514 1517 1520 1523 1525 1527 1529 1531 1532 1534 1536 1537 1539 1540 1541 1542 1543 1544 1544 1544 1544
1483 1492 1488 1489 1490 1491 1488 1487 1493 1499 1514 1513 1503 1498 1494 1493 1492 1493 1496 1499 1503 1506 1509 1512 1515 1517 1520 1522 1524 1526 1528 1530 1532 1533 1535 1537 1538 1538 1539 1540 1541 1541 1542 1542
1482 1490 1490 1489 1490 1488 1491 1491 1491 1492 1496 1505 1508 1499 1482 1486 1488 1491 1494 1498 1501 1504 1507 1509 1512 1514 1517 1519 1522 1523 1525 1527 1529 1531 1532 1534 1535 1536 1537 1538 1538 1539 1539 1539
1485 1484 1489 1487 1485 1485 1485 1487 1489 1499 1502 1498 1499 1496 1481 1485 1488 1491 1494 1497 1500 1503 1505 1507 1510 1512 1514 1516 1518 1520 1523 1525 1526 1528 1529 1531 1532 1533 1534 1535 1536 1536 1536 1537
1487 1488 1497 1495 1493 1489 1487 1486 1486 1488 1492 1495 1498 1494 1481 1486 1488 1492 1494 1497 1500 1502 1503 1505 1508 1509 1511 1513 1515 1518 1520 1522 1524 1525 1527 1528 1529 1530 1531 1532 1533 1533 1534 1534
1489 1486 1490 1492 1485 1483 1488 1488 1487 1488 1493 1492 1490 1486 1483 1485 1488 1491 1494 1497 1498 1500 1502 1503 1505 1507 1509 1511 1513 1515 1517 1519 1521 1522 1524 1525 1526 1527 1528 1529 1530 1531 1531 1532
1487 1486 1485 1482 1480 1481 1483 1485 1485 1487 1485 1487 1483 1482 1482 1485 1489 1491 1493 1495 1497 1499 1500 1501 1503 1505 1507 1508 1510 1512 1514 1516 1518 1519 1521 1522 1523 1524 1525 1526 1527 1528 1528 1529
1488 1488 1486 1486 1482 1482 1484 1483 1483 1484 1483 1483 1482 1483 1483 1487 1489 1491 1493 1494 1496 1497 1499 1500 1502 1503 1504 1506 1507 1509 1511 1513 1514 1516 1517 1519 1520 1521 1522 1523 1524 1524 1525 1526
1487 1489 1490 1486 1482 1485 1488 1481 1481 1482 1481 1482 1483 1483 1486 1488 1490 1492 1493 1494 1495 1496 1497 1499 1500 1501 1502 1504 1505 1506 1508 1510 1512 1513 1514 1516 1517 1518 1519 1520 1521 1521 1521 1522
1491 1491 1488 1485 1490 1500 1482 1477 1477 1480 1482 1483 1484 1486 1488 1489 1491 1492 1494 1495 1495 1496 1496 1497 1498 1499 1500 1502 1503 1504 1506 1508 1509 1510 1512 1513 1514 1515 1516 1517 1517 1518 1518 1519
1492 1491 1487 1486 1488 1486 1482 1480 1481 1482 1485 1486 1487 1488 1489 1489 1489 1491 1494 1494 1495 1495 1495 1495 1496 1497 1498 1499 1500 1502 1504 1505 1507 1508 1509 1510 1511 1512 1513 1514 1514 1515 1515 1516
1491 1490 1488 1487 1491 1491 1482 1481 1483 1484 1486 1488 1489 1489 1489 1488 1485 1489 1493 1493 1493 1493 1494 1494 1494 1495 1495 1497 1498 1500 1501 1503 1504 1505 1507 1508 1509 1510 1510 1511 1511 1512 1513 1513
1488 1489 1487 1486 1487 1480 1481 1482 1484 1490 1488 1490 1490 1491 1491 1490 1491 1493 1493 1493 1493 1492 1492 1493 1493 1493 1494 1495 1496 1498 1499 1500 1502 1503 1504 1505 1506 1507 1508 1508 1508 1509 1510 1510
1483 1483 1487 1485 1488 1487 1484 1483 1485 1488 1490 1490 1491 1491 1492 1492 1492 1492 1492 1492 1492 1492 1491 1492 1492 1492 1493 1493 1495 1495 1497 1499 1500 1501 1501 1502 1503 1504 1505 1505 1505 1506 1507 1507
1481 1481 1478 1482 1485 1486 1487 1488 1490 1491 1491 1491 1491 1491 1492 1492 1492 1492 1492 1492 1491 1491 1491 1491 1491 1491 1492 1492 1494 1494 1495 1496 1498 1498 1498 1499 1500 1502 1502 1502 1503 1503 1504 1504
1482 1485 1483 1483 1484 1487 1488 1489 1490 1491 1491 1491 1491 1491 1491 1491 1491 1491 1491 1491 1490 1490 1490 1490 1490 1490 1490 1491 1492 1493 1494 1494 1495 1495 1496 1497 1497 1498 1499 1499 1500 1501 1501 1501
1482 1484 1482 1483 1485 1487 1488 1489 1489 1490 1490 1491 1491 1491 1491 1491 1491 1491 1490 1490 1490 1489 1489 1489 1489 1488 1488 1489 1490 1490 1491 1491 1492 1493 1493 1494 1495 1495 1496 1496 1496 1497 1497 1498
1483 1483 1483 1481 1484 1485 1486 1488 1488 1489 1489 1489 1489 1489 1490 1490 1489 1489 1489 1489 1488 1488 1488 1488 1487 1487 1486 1486 1487 1487 1487 1488 1489 1489 1490 1491 1492 1492 1493 1493 1493 1493 1494 1493